Wind_Speed
28 27 25 22 21 18 19 18 16 15 15 15 15 15 16 18 18 11 7 4 11 10 8 6 9 12 14 15 15 13 11 11 11 10 8 7 7 8 9 11 13 13 11 10 8 7 6 4 3
30 27 28 24 24 22 26 20 19 17 17 16 14 14 14 15 16 12 6 3 8 9 9 6 12 13 14 14 13 12 11 10 10 9 8 7 7 8 9 11 12 11 10 9 6 5 4 2 0
33 34 31 30 25 28 28 23 22 20 17 16 14 14 13 13 14 13 8 3 3 8 7 10 10 13 14 14 13 11 9 10 10 8 7 6 5 7 9 11 11 10 8 6 5 4 2 0 1
32 33 33 32 32 33 30 27 26 22 20 18 16 14 13 12 12 13 8 3 3 8 8 8 10 12 15 15 14 11 10 11 10 7 4 3 2 4 6 9 8 8 7 5 4 3 0 2 3
34 34 35 34 30 34 31 32 29 26 23 20 17 15 14 12 10 12 9 3 4 8 9 8 10 11 15 16 13 12 11 11 9 6 4 3 3 6 8 9 8 7 6 4 3 2 1 3 5
38 36 35 33 34 31 30 35 35 33 27 22 19 17 14 13 10 10 10 5 4 8 11 9 10 11 15 17 16 14 12 11 9 7 6 4 4 6 8 9 9 6 4 4 4 4 4 6 7
42 39 38 34 33 37 38 27 37 41 31 26 21 19 15 14 12 10 10 7 6 8 12 12 9 11 14 16 14 15 13 13 10 9 8 6 5 7 8 7 5 5 5 6 7 8 7 7 8
45 44 40 37 32 32 35 35 35 34 41 31 23 19 19 17 14 12 10 9 8 9 13 14 14 13 13 13 14 14 13 12 10 8 8 7 7 9 9 9 9 8 8 9 10 10 9 9 11
48 50 47 34 40 35 29 33 34 30 39 38 34 26 25 21 18 15 12 10 11 12 15 16 17 15 13 14 12 12 13 11 9 8 7 7 8 9 10 11 12 11 11 12 11 11 11 12 13
54 54 48 43 44 40 35 32 32 33 29 46 42 36 37 26 23 18 15 12 12 13 16 19 20 17 14 14 14 16 15 14 14 15 13 11 11 14 15 15 14 13 13 12 12 13 13 13 13
50 55 46 43 47 49 43 33 34 33 34 29 41 38 29 27 27 21 18 14 14 15 18 21 22 20 18 17 17 18 17 16 15 14 13 11 10 12 14 14 15 15 15 16 15 15 15 15 16
47 49 51 47 49 48 47 43 36 33 33 33 34 32 30 28 27 25 20 18 17 16 19 22 25 26 23 20 20 19 20 20 18 17 17 14 12 12 13 15 17 17 18 18 18 16 17 17 17
45 46 51 49 51 51 51 47 43 34 36 35 35 37 34 29 28 27 25 22 19 19 19 21 26 28 28 25 23 23 22 21 20 20 19 17 15 15 14 15 17 19 19 19 19 19 18 18 18
50 49 48 48 52 53 52 49 48 37 37 41 36 37 38 31 31 28 29 27 24 22 20 21 23 29 29 28 27 26 23 23 24 23 22 21 19 18 18 19 19 20 19 20 21 21 20 19 20
48 48 50 50 53 55 55 51 52 42 46 38 39 41 39 35 33 32 33 30 29 26 23 21 24 26 31 30 29 28 27 24 24 24 24 23 23 22 22 23 22 21 21 20 21 21 22 21 21
48 51 54 50 52 57 56 55 51 44 49 42 35 43 42 39 35 37 34 35 34 32 28 25 25 27 29 33 33 33 31 29 26 25 25 25 26 26 26 27 25 24 22 21 22 22 22 22 21
46 48 47 50 52 56 57 58 49 47 47 50 37 38 43 43 41 40 37 37 37 35 32 28 27 27 30 32 34 35 34 33 31 29 29 29 30 30 29 28 27 27 24 23 22 21 22 21 21
52 44 46 45 45 54 55 59 52 46 49 51 47 37 40 44 41 41 39 39 39 37 35 32 30 30 29 31 31 32 33 33 33 34 35 33 30 30 31 29 28 28 26 24 22 22 21 20 20
59 53 59 54 50 50 49 56 53 47 51 50 52 40 40 41 39 42 43 40 40 38 35 34 34 32 32 30 31 32 32 34 34 35 34 32 30 30 31 32 30 29 28 24 23 23 21 20 19
63 63 59 53 49 48 45 46 48 47 51 52 51 46 39 39 39 42 44 41 40 38 37 37 36 35 34 32 31 32 33 33 34 32 31 31 31 30 31 32 30 29 27 25 24 23 21 21 23
63 60 64 68 59 53 42 47 42 36 47 49 49 49 42 38 33 38 40 40 42 40 39 38 38 38 37 34 34 32 30 29 28 28 32 33 32 32 31 32 29 28 26 26 25 24 23 26 25
64 61 66 64 48 68 56 56 44 36 50 52 48 48 46 36 35 35 37 43 41 40 40 42 41 39 39 37 35 32 29 30 29 31 32 30 30 29 28 29 29 28 27 26 27 26 28 29 29
61 61 63 56 52 55 63 61 47 34 41 45 43 41 45 38 35 34 36 40 41 44 42 45 44 44 42 38 36 34 33 31 31 31 29 29 30 30 29 29 30 29 28 29 29 30 30 30 32
59 63 60 60 52 54 51 66 61 35 32 40 40 39 37 36 35 35 36 41 41 42 42 42 44 44 44 42 38 35 34 34 33 33 31 30 32 31 31 30 31 31 31 32 35 31 32 33 34
60 58 58 60 60 63 48 57 61 49 41 42 41 41 40 39 39 37 39 38 39 39 39 41 44 44 43 43 41 37 35 37 37 39 39 35 36 35 33 35 34 35 36 36 34 34 34 35 35
59 63 62 58 62 60 48 57 59 60 45 40 41 41 42 41 41 43 40 38 39 39 37 39 43 40 43 46 43 42 41 43 43 43 44 41 41 39 38 41 43 43 40 31 37 38 35 35 34
58 65 59 71 61 62 57 40 45 47 31 32 29 37 45 46 45 44 47 42 43 42 38 39 41 42 45 44 44 44 45 45 44 47 48 48 46 43 43 40 39 38 39 39 40 35 33 35 35
60 57 59 62 65 58 61 60 47 42 37 34 37 36 39 46 50 46 46 48 44 45 39 40 41 43 45 47 46 42 42 43 44 46 48 49 50 46 40 38 37 39 34 34 35 33 34 37 36
54 63 70 77 69 68 66 72 60 56 54 47 45 44 42 42 46 49 52 47 48 46 43 41 40 43 43 43 38 40 41 41 42 42 43 48 50 47 43 40 39 34 33 35 35 35 36 37 38
55 55 60 65 74 73 66 73 66 66 64 56 56 48 46 38 46 52 50 48 44 45 48 45 41 42 41 39 42 41 41 39 38 37 37 41 45 49 42 41 38 36 37 37 36 37 38 40 41
Wind_Direction
240 242 240 237 249 251 260 262 273 282 295 308 324 342 350 351 354 359 12 82 135 134 138 151 158 146 146 146 151 144 138 141 145 142 136 131 131 134 137 139 145 142 143 144 138 128 124 135 138
242 245 251 240 245 250 254 258 264 271 282 294 311 327 338 346 350 352 10 356 143 153 140 135 152 151 151 153 152 148 148 149 150 146 143 142 146 150 148 152 151 150 149 141 140 125 119 127 175
249 241 251 247 241 249 250 256 259 264 271 282 297 309 323 336 345 348 350 351 162 173 167 163 161 165 160 156 158 162 162 155 154 154 157 157 158 164 161 161 160 154 144 150 147 128 135 93 285
258 250 252 248 244 247 252 253 257 259 261 269 282 292 305 318 336 339 333 337 224 189 200 180 173 177 177 165 168 179 179 166 165 171 170 151 164 177 167 165 160 153 153 161 153 166 151 321 293
257 258 254 251 246 246 249 251 257 258 259 262 272 280 289 299 322 330 324 313 270 207 197 209 187 189 184 179 183 190 182 175 172 184 191 187 176 174 174 175 171 170 178 179 187 208 277 281 283
255 257 257 255 247 242 250 245 248 256 259 257 264 271 273 284 298 314 318 290 256 220 200 212 197 189 192 185 191 197 194 183 185 194 205 208 199 197 195 192 190 188 189 204 218 240 257 268 282
259 255 257 258 259 251 246 257 252 243 255 253 255 266 268 270 280 294 303 279 241 237 208 198 209 180 187 193 198 199 197 194 198 206 218 221 226 211 210 211 208 212 221 229 236 241 259 290 298
257 258 256 258 264 262 253 249 253 250 238 247 246 260 268 267 267 274 285 285 243 226 220 201 195 191 183 200 199 204 208 207 219 227 234 237 231 215 216 219 222 227 234 247 254 265 284 298 303
255 258 259 266 265 260 262 254 248 254 240 243 241 254 266 261 259 261 268 275 247 220 221 213 199 201 197 192 203 211 214 219 233 250 248 250 236 228 222 232 241 245 245 253 270 280 287 291 296
253 257 259 259 265 266 259 257 252 247 251 246 239 247 257 249 250 250 257 258 260 233 221 218 209 206 210 213 211 210 212 215 222 229 234 232 221 217 221 228 237 245 254 262 271 277 282 289 293
249 254 257 255 259 265 263 259 255 249 245 244 244 247 239 245 245 242 249 252 255 242 225 223 219 218 221 228 226 217 217 227 233 239 249 254 254 250 245 244 249 254 256 260 265 273 281 285 289
251 250 253 252 255 260 262 260 257 249 248 244 240 233 233 240 245 243 241 248 248 248 236 226 223 226 228 233 234 228 224 224 229 239 246 253 255 252 255 258 258 260 264 266 271 273 279 285 291
253 252 252 251 252 254 259 261 254 250 251 244 230 231 230 236 243 244 241 242 242 246 245 235 229 229 228 231 238 232 228 232 235 239 248 252 255 256 259 263 266 266 269 274 277 280 283 286 289
251 252 253 254 252 252 256 258 257 257 254 246 236 230 232 230 240 243 245 241 244 241 244 242 237 234 233 231 236 232 233 240 242 242 246 251 257 263 267 267 268 271 276 281 284 286 285 287 290
249 250 251 253 251 249 250 251 259 260 261 252 242 237 234 229 233 239 243 244 245 244 240 244 241 238 236 235 235 236 237 240 247 249 250 255 259 264 269 272 272 273 277 282 285 285 284 286 288
249 252 243 249 251 249 247 248 253 255 261 254 252 236 236 232 231 235 239 244 245 247 241 240 245 241 238 237 237 238 243 245 244 250 251 253 257 261 265 268 270 270 274 277 278 280 281 282 288
242 244 247 246 249 249 245 246 243 249 255 261 258 241 239 236 234 234 234 241 245 248 249 244 244 244 243 241 240 242 246 249 251 254 254 255 259 262 263 265 267 269 273 274 277 279 277 282 287
239 245 244 248 246 246 245 243 236 240 248 255 259 254 242 241 243 239 236 238 242 245 249 252 249 249 247 246 247 246 250 252 254 257 257 259 261 265 267 266 267 270 272 274 277 273 277 281 290
235 240 241 249 254 246 245 242 236 233 242 249 255 260 248 239 236 238 238 238 242 245 248 251 251 251 252 250 246 248 246 246 250 254 259 262 266 271 270 269 268 271 272 276 272 274 278 285 289
236 241 243 239 244 248 244 239 241 231 236 245 251 251 252 241 236 238 242 245 245 246 246 246 251 252 253 254 253 250 250 252 255 259 263 267 268 267 266 267 268 268 271 273 273 275 279 284 288
232 239 246 248 250 250 245 238 241 227 232 237 244 251 250 245 240 240 243 245 244 243 244 248 247 249 250 251 255 256 259 262 264 263 258 257 258 262 265 269 269 268 268 270 273 275 280 282 292
235 240 243 249 244 253 254 246 243 235 231 234 239 250 249 257 245 244 244 244 243 245 245 242 243 247 250 251 253 257 257 256 258 258 261 265 267 268 268 267 264 263 266 270 270 275 278 284 288
237 234 239 247 255 262 249 261 229 252 238 237 236 241 249 252 248 248 248 246 246 244 243 243 243 245 249 250 253 253 253 255 256 259 264 265 265 264 263 263 264 266 266 265 270 276 277 283 285
236 237 242 245 241 255 248 258 252 241 241 238 233 235 237 244 240 250 255 251 251 245 246 248 248 250 253 254 253 253 251 250 252 255 258 260 263 266 266 265 264 262 264 269 276 268 276 281 284
234 235 238 242 243 245 250 246 253 244 245 239 234 232 235 240 240 245 253 256 250 245 244 248 247 248 251 253 252 252 250 248 249 253 254 253 258 262 264 262 262 264 268 272 266 268 275 281 288
238 237 232 239 239 248 240 246 255 253 240 242 238 234 235 237 239 240 247 252 254 251 247 245 246 248 250 251 250 250 249 253 258 260 261 259 256 253 256 259 265 267 269 261 264 271 279 283 288
231 232 235 236 244 243 235 226 232 236 219 224 237 241 234 238 241 241 241 246 249 253 255 251 248 247 244 247 248 251 254 256 257 259 258 258 259 253 256 260 264 264 261 265 267 273 279 282 286
229 231 226 230 235 248 250 237 239 226 211 228 254 252 243 241 241 242 242 242 250 250 252 256 255 250 245 244 248 251 253 255 258 259 260 260 256 257 257 262 258 262 260 262 267 274 277 281 287
235 232 231 231 235 241 249 243 235 234 248 251 260 247 246 243 238 243 244 245 243 251 249 249 253 249 244 247 249 252 255 258 260 260 261 257 251 254 259 256 255 255 259 264 269 273 277 283 287
234 235 240 245 246 249 252 247 238 243 254 268 262 247 242 247 249 242 243 242 241 243 247 247 245 241 241 243 248 252 255 258 261 265 264 254 247 248 253 253 254 258 263 268 272 276 280 285 288
Height
5867 5869 5870 5871 5876 5874 5874 5876 5877 5878 5878 5876 5875 5873 5872 5869 5867 5868 5865 5863 5861 5860 5861 5862 5861 5862 5864 5864 5865 5866 5866 5867 5867 5868 5869 5870 5870 5871 5871 5870 5871 5871 5872 5874 5874 5874 5875 5876 5876
5864 5866 5868 5869 5873 5873 5871 5874 5875 5877 5877 5876 5874 5873 5872 5870 5868 5866 5865 5864 5863 5862 5862 5863 5863 5863 5865 5865 5867 5867 5868 5868 5868 5869 5869 5870 5871 5871 5871 5871 5871 5872 5873 5874 5875 5875 5876 5877 5878
5860 5863 5865 5867 5869 5870 5868 5872 5873 5875 5876 5875 5874 5873 5872 5870 5868 5867 5866 5865 5865 5863 5863 5863 5865 5866 5866 5867 5868 5869 5869 5868 5869 5869 5870 5871 5871 5871 5871 5872 5872 5873 5873 5875 5875 5876 5877 5877 5878
5858 5860 5863 5864 5865 5866 5867 5869 5871 5873 5874 5874 5873 5873 5872 5870 5868 5867 5866 5865 5865 5864 5864 5865 5865 5866 5867 5868 5869 5869 5869 5869 5869 5870 5871 5871 5872 5873 5873 5873 5873 5874 5875 5876 5877 5877 5877 5877 5878
5855 5856 5858 5860 5862 5864 5866 5867 5869 5870 5873 5873 5872 5872 5871 5870 5868 5867 5866 5865 5864 5864 5864 5865 5866 5867 5867 5868 5869 5869 5870 5870 5870 5871 5872 5872 5872 5873 5874 5874 5875 5875 5876 5876 5877 5877 5877 5878 5877
5851 5852 5855 5857 5858 5859 5862 5864 5866 5867 5870 5871 5871 5870 5870 5869 5868 5866 5865 5865 5864 5864 5863 5864 5865 5866 5867 5868 5868 5869 5870 5870 5870 5871 5872 5873 5873 5874 5874 5875 5875 5876 5877 5877 5877 5877 5877 5877 5876
5846 5848 5850 5853 5855 5856 5858 5860 5862 5863 5866 5869 5869 5869 5869 5867 5867 5866 5865 5864 5864 5863 5863 5863 5865 5865 5867 5868 5869 5869 5870 5870 5871 5871 5872 5873 5873 5874 5875 5875 5876 5876 5876 5876 5876 5876 5876 5877 5877
5840 5843 5845 5851 5851 5853 5854 5855 5857 5859 5862 5865 5866 5866 5867 5865 5865 5864 5864 5863 5863 5863 5863 5863 5864 5866 5866 5867 5869 5869 5869 5870 5872 5872 5872 5873 5873 5873 5874 5875 5875 5875 5875 5876 5876 5876 5877 5877 5877
5833 5836 5841 5848 5847 5848 5850 5851 5852 5854 5857 5859 5861 5862 5863 5864 5863 5862 5862 5861 5862 5861 5862 5862 5863 5865 5866 5865 5867 5869 5869 5870 5871 5872 5871 5872 5872 5873 5873 5874 5874 5875 5875 5875 5876 5877 5876 5876 5875
5825 5829 5836 5842 5841 5843 5844 5845 5847 5849 5850 5852 5855 5857 5860 5861 5860 5859 5859 5859 5859 5859 5860 5861 5862 5864 5866 5866 5866 5867 5868 5869 5869 5869 5869 5870 5870 5870 5871 5872 5873 5873 5874 5874 5875 5875 5874 5874 5873
5820 5823 5829 5833 5833 5836 5839 5842 5841 5844 5845 5846 5847 5852 5855 5856 5856 5855 5856 5856 5857 5858 5858 5859 5860 5862 5863 5865 5865 5865 5866 5867 5868 5869 5870 5870 5870 5871 5871 5871 5871 5871 5871 5871 5871 5871 5871 5871 5870
5811 5816 5819 5825 5825 5829 5832 5836 5837 5838 5843 5840 5841 5846 5849 5850 5852 5852 5851 5853 5854 5855 5855 5856 5857 5859 5861 5862 5863 5864 5864 5865 5866 5868 5868 5869 5869 5869 5870 5870 5869 5869 5868 5868 5869 5869 5869 5869 5868
5804 5808 5810 5816 5817 5820 5824 5830 5831 5833 5835 5834 5835 5839 5843 5845 5847 5848 5848 5848 5850 5850 5852 5853 5854 5855 5857 5858 5860 5861 5862 5863 5864 5865 5866 5867 5867 5867 5868 5868 5867 5866 5866 5866 5866 5867 5867 5866 5866
5792 5799 5802 5806 5811 5812 5817 5822 5823 5829 5829 5827 5831 5834 5837 5837 5841 5843 5843 5843 5845 5846 5847 5848 5850 5852 5853 5854 5856 5857 5858 5860 5861 5862 5863 5864 5864 5865 5865 5865 5865 5865 5864 5864 5864 5864 5863 5862 5862
5784 5790 5793 5798 5802 5801 5807 5814 5818 5822 5821 5822 5824 5828 5830 5831 5834 5837 5837 5840 5839 5841 5842 5844 5845 5846 5849 5849 5851 5854 5854 5855 5856 5858 5859 5860 5861 5862 5862 5862 5862 5862 5862 5861 5860 5860 5859 5859 5858
5776 5777 5783 5793 5791 5792 5795 5808 5809 5813 5813 5817 5818 5821 5823 5825 5828 5828 5832 5834 5835 5836 5837 5838 5840 5842 5843 5844 5846 5848 5850 5851 5852 5854 5855 5856 5857 5857 5858 5858 5858 5858 5858 5857 5856 5856 5855 5855 5855
5765 5771 5777 5780 5779 5782 5784 5795 5802 5804 5806 5809 5811 5813 5816 5818 5819 5822 5825 5826 5829 5831 5833 5834 5835 5836 5838 5839 5841 5843 5845 5847 5849 5850 5850 5851 5852 5853 5853 5853 5854 5854 5854 5853 5852 5852 5851 5851 5850
5758 5762 5768 5769 5774 5769 5775 5780 5789 5794 5797 5801 5806 5806 5809 5811 5814 5820 5820 5820 5822 5826 5828 5830 5831 5831 5833 5835 5837 5839 5841 5843 5844 5844 5845 5845 5847 5848 5849 5848 5848 5848 5849 5848 5848 5847 5846 5846 5846
5746 5752 5757 5764 5763 5759 5768 5767 5775 5783 5787 5792 5799 5802 5802 5804 5808 5811 5812 5813 5817 5821 5824 5825 5825 5826 5828 5829 5831 5833 5835 5836 5837 5838 5839 5841 5842 5842 5842 5842 5843 5843 5843 5844 5843 5842 5842 5842 5841
5736 5742 5752 5754 5754 5755 5758 5758 5764 5772 5777 5784 5789 5796 5798 5799 5801 5802 5804 5808 5811 5815 5817 5818 5820 5820 5822 5824 5825 5826 5828 5830 5831 5833 5835 5835 5836 5836 5835 5836 5837 5838 5837 5838 5838 5837 5837 5837 5836
5728 5735 5744 5745 5744 5745 5747 5747 5755 5766 5768 5773 5781 5788 5793 5795 5795 5794 5796 5799 5803 5806 5809 5812 5812 5812 5814 5817 5818 5821 5823 5825 5827 5828 5827 5827 5828 5829 5829 5830 5831 5832 5832 5833 5833 5832 5832 5831 5830
5718 5731 5732 5735 5735 5738 5738 5737 5746 5759 5758 5763 5773 5780 5787 5789 5790 5788 5788 5790 5794 5798 5802 5802 5803 5805 5807 5809 5811 5815 5817 5817 5819 5819 5821 5823 5823 5824 5824 5824 5825 5826 5827 5827 5826 5826 5825 5824 5823
5715 5714 5721 5723 5724 5727 5729 5727 5744 5748 5753 5761 5767 5772 5778 5781 5782 5782 5782 5783 5785 5789 5791 5794 5795 5797 5799 5802 5804 5807 5810 5811 5811 5812 5814 5816 5817 5817 5817 5818 5819 5820 5820 5820 5820 5819 5819 5818 5816
5703 5706 5710 5713 5716 5710 5723 5720 5726 5743 5753 5755 5759 5763 5767 5771 5774 5776 5776 5775 5778 5780 5783 5787 5789 5791 5793 5795 5796 5799 5802 5802 5803 5804 5805 5808 5808 5810 5812 5812 5812 5813 5813 5813 5812 5812 5812 5811 5809
5690 5696 5699 5701 5701 5703 5716 5704 5718 5736 5743 5745 5751 5755 5757 5762 5767 5769 5770 5769 5769 5771 5775 5777 5779 5782 5785 5787 5788 5791 5794 5794 5794 5795 5796 5798 5800 5802 5804 5803 5804 5805 5805 5805 5804 5803 5803 5802 5801
5682 5686 5687 5690 5692 5704 5695 5691 5711 5725 5734 5738 5744 5748 5750 5751 5756 5759 5760 5760 5761 5763 5765 5768 5769 5773 5774 5776 5780 5781 5783 5783 5785 5787 5788 5789 5789 5791 5792 5794 5795 5796 5796 5796 5796 5796 5795 5793 5792
5670 5665 5685 5680 5683 5682 5681 5698 5704 5712 5724 5729 5736 5739 5742 5742 5745 5749 5752 5752 5754 5756 5757 5759 5760 5762 5763 5767 5769 5771 5774 5775 5777 5777 5776 5777 5779 5781 5781 5783 5785 5786 5787 5787 5788 5788 5786 5784 5784
5650 5667 5670 5668 5669 5667 5669 5686 5698 5706 5712 5718 5726 5732 5732 5733 5735 5737 5740 5742 5745 5747 5748 5749 5751 5754 5755 5756 5758 5761 5764 5765 5766 5766 5767 5768 5770 5770 5771 5773 5775 5776 5777 5778 5778 5779 5778 5776 5775
5645 5646 5649 5651 5652 5655 5661 5670 5700 5696 5699 5707 5716 5718 5721 5724 5726 5727 5729 5732 5735 5737 5739 5740 5742 5744 5747 5747 5750 5753 5755 5756 5756 5756 5757 5757 5759 5761 5762 5764 5765 5767 5768 5770 5770 5770 5769 5768 5765
5628 5634 5638 5638 5645 5646 5649 5652 5684 5685 5690 5697 5702 5709 5710 5712 5717 5719 5719 5720 5723 5725 5728 5729 5731 5734 5736 5739 5742 5745 5746 5747 5747 5747 5747 5746 5749 5750 5752 5754 5756 5758 5759 5760 5760 5760 5759 5757 5755